Overview Statistics Trail Chart Weather Telemetry Raw packets
 

This is the latest recevied weather packets stored in our database for station/object SV9TNF-51. If no packets are shown the sender has not sent any weather packets the latest 10 day(s).

<< 45 46 47 48 49 50 51 >>
Time Temp. Humidity Pressure Rain* Wind** Luminosity Snow
1788366830 28.33° C 54% 1010.8 hPa 0 mm 2.24 m/s, 140° - -
1788366530 28.89° C 54% 1010.8 hPa 0 mm 1.34 m/s, 126° - -
1788366230 29.44° C 54% 1011.2 hPa 0 mm 0 m/s - -
1788365929 29.44° C 53% 1011.2 hPa 0 mm 1.34 m/s, 126° - -
1788365629 29.44° C 54% 1011.2 hPa 0 mm 1.34 m/s, 126° - -
1788365329 30.56° C 49% 1011.2 hPa 0 mm 0.89 m/s, 129° - -
1788365029 30.56° C 49% 1011.2 hPa 0 mm 2.68 m/s, 125° - -
1788364729 30.56° C 51% 1011.2 hPa 0 mm 0 m/s - -
1788364429 30.56° C 51% 1011.2 hPa 0 mm 5.81 m/s, 3° - -
1788364129 31.11° C 49% 1011.2 hPa 0 mm 4.47 m/s, 338° - -
1788363829 32.78° C 46% 1011.2 hPa 0 mm 0.45 m/s, 141° - -
1788363529 32.78° C 46% 1011.2 hPa 0 mm 1.79 m/s, 139° - -
1788363250 33.33° C 43% 1011.2 hPa 0 mm 0.89 m/s, 142° - -
1788362929 32.78° C 44% 1011.2 hPa 0 mm 0.45 m/s, 143° - -
1788362628 32.78° C 47% 1011.2 hPa 0 mm 0.89 m/s, 133° - -
1788362328 31.67° C 48% 1011.2 hPa 0 mm 0.45 m/s, 121° - -
1788362028 31.11° C 52% 1011.2 hPa 0 mm 10.28 m/s, 124° - -
1788361728 32.22° C 48% 1011.2 hPa 0 mm 1.79 m/s, 100° - -
1788361428 32.78° C 42% 1011.2 hPa 0 mm 3.58 m/s, 340° - -
1788361128 32.78° C 41% 1011.2 hPa 0 mm 1.79 m/s, 136° - -
1788360828 32.78° C 43% 1011.2 hPa 0 mm 3.13 m/s, 123° - -
1788360528 31.67° C 45% 1011.2 hPa 0 mm 10.73 m/s, 100° - -
1788360228 32.78° C 45% 1011.2 hPa 0 mm 4.92 m/s, 324° - -
1788359927 31.67° C 49% 1011.2 hPa 0 mm 5.81 m/s, 37° - -
1788359628 31.67° C 47% 1011.2 hPa 0 mm 8.05 m/s, 292° - -

* Rain latest hour (hover to see other rain measurements)
** Current wind speed in m/s (hover to see current wind gust speed)